EW3212 Weather Reports


time (UTC)temp
F
wind
direction
speed
knots
gust
knots
rain 1hr
in
rain 24hr
in
rain mn
in
humidity
%
barometer
mb
20260903025033 77 261 0.0 0.0 0.00 0.00 0.00 79 1013.8
20260903024051 77 261 0.0 0.0 0.00 0.00 0.00 79 1013.8
20260903023033 78 261 0.0 0.0 0.00 0.00 0.00 79 1013.8
20260903022046 78 261 0.0 0.0 0.00 0.00 0.00 78 1013.8
20260903021058 79 261 0.0 0.0 0.00 0.00 0.00 78 1013.8
20260903020051 79 261 0.0 0.0 0.00 0.00 0.00 77 1013.7
20260903015109 80 261 0.0 0.0 0.00 0.00 0.00 76 1013.8
20260903014047 80 261 0.0 0.0 0.00 0.00 0.00 75 1013.6
20260903013034 81 261 0.0 0.0 0.00 0.00 0.00 74 1013.6
20260903012001 82 261 0.0 0.0 0.00 0.00 0.00 73 1013.5
20260903010957 82 261 0.0 0.0 0.00 0.00 0.00 71 1013.4
20260903010020 83 261 0.0 0.0 0.00 0.00 0.00 69 1013.3
20260903004952 84 261 0.0 0.0 0.00 0.00 0.00 68 1013.2
20260903003942 85 261 0.0 0.0 0.00 0.00 0.00 65 1013.2
20260903002944 86 261 0.0 0.0 0.00 0.00 0.00 62 1013.2
20260903002005 87 261 0.0 0.0 0.00 0.00 0.00 61 1013.2
20260903000952 88 261 0.0 0.0 0.00 0.00 0.00 59 1013.1
20260902234815 90 261 0.0 0.0 0.00 0.00 0.00 55 1013.0
20260902232654 91 223 0.0 0.0 0.00 0.00 0.00 52 1013.0
20260902231710 91 251 0.0 0.0 0.00 0.00 0.00 51 1013.0
20260902230700 91 277 0.0 0.0 0.00 0.00 0.00 51 1013.0
20260902224556 92 242 0.0 0.0 0.00 0.00 0.00 49 1013.1
20260902223556 92 225 0.0 0.0 0.00 0.00 0.00 49 1013.1
20260902222618 92 250 0.0 0.0 0.00 0.00 0.00 48 1013.1
20260902221639 93 201 0.0 0.0 0.00 0.00 0.00 48 1013.0
20260902220635 93 253 0.0 0.0 0.00 0.00 0.00 49 1013.2
20260902215627 93 232 0.0 0.0 0.00 0.00 0.00 49 1013.1
20260902214627 93 279 0.0 0.0 0.00 0.00 0.00 49 1013.2
20260902213620 93 234 0.0 0.0 0.00 0.00 0.00 48 1013.2
20260902212622 94 213 0.0 0.0 0.00 0.00 0.00 47 1013.3
20260902211634 94 243 0.0 0.0 0.00 0.00 0.00 48 1013.3
20260902210640 95 259 0.0 0.0 0.00 0.00 0.00 47 1013.4
20260902205650 95 290 0.0 1.7 0.00 0.00 0.00 44 1013.5
20260902204714 96 257 0.0 0.0 0.00 0.00 0.00 43 1013.5
20260902203711 96 296 0.0 0.0 0.00 0.00 0.00 44 1013.6
20260902202731 96 280 0.0 0.0 0.00 0.00 0.00 43 1013.7
20260902201717 97 275 0.0 0.0 0.00 0.00 0.00 43 1013.8
20260902200726 97 221 0.0 0.0 0.00 0.00 0.00 40 1013.9
20260902194602 97 189 0.0 0.0 0.00 0.00 0.00 41 1014.1
20260902193546 97 294 0.0 0.9 0.00 0.00 0.00 41 1014.2
20260902192606 97 263 0.0 0.0 0.00 0.00 0.00 39 1014.2
20260902191535 97 270 0.0 0.0 0.00 0.00 0.00 42 1014.3
20260902190554 97 216 0.0 0.0 0.00 0.00 0.00 45 1014.5
20260902185602 96 209 0.0 0.0 0.00 0.00 0.00 44 1014.5
20260902184624 96 246 0.0 0.0 0.00 0.00 0.00 46 1014.6
20260902183629 95 223 0.0 0.0 0.00 0.00 0.00 46 1014.7
20260902182647 95 223 0.0 0.0 0.00 0.00 0.00 45 1014.8
20260902181708 95 251 0.0 4.3 0.00 0.00 0.00 45 1014.8
20260902180722 95 169 0.0 0.0 0.00 0.00 0.00 49 1014.7
20260902174546 95 232 0.0 0.0 0.00 0.00 0.00 44 1015.0
20260902173512 95 221 0.0 0.0 0.00 0.00 0.00 45 1015.4
20260902172444 95 271 0.0 0.0 0.00 0.00 0.00 50 1015.4
20260902171435 95 219 0.0 0.0 0.00 0.00 0.00 48 1015.5
20260902170418 95 287 0.0 0.0 0.00 0.00 0.00 49 1015.5
20260902164251 94 232 0.0 0.0 0.00 0.00 0.00 51 1015.6
20260902163247 94 285 0.0 0.0 0.00 0.00 0.00 49 1015.7
20260902162238 93 217 0.0 0.0 0.00 0.00 0.00 50 1015.6
20260902161302 93 263 0.0 0.0 0.00 0.00 0.00 51 1015.6
20260902155057 92 208 0.0 0.0 0.00 0.00 0.00 55 1015.8
20260902154118 91 246 0.0 0.0 0.00 0.00 0.00 55 1016.0
20260902152034 90 254 0.0 0.0 0.00 0.00 0.00 58 1015.9
20260902151012 89 271 0.0 0.0 0.00 0.00 0.00 57 1015.9
20260902150024 89 251 0.0 0.0 0.00 0.00 0.00 58 1016.0
20260902144950 88 222 0.0 0.0 0.00 0.00 0.00 59 1015.9
20260902143917 87 232 0.0 0.0 0.00 0.00 0.00 60 1016.0
20260902142901 87 212 0.0 0.0 0.00 0.00 0.00 62 1015.9
20260902140717 85 239 0.0 0.0 0.00 0.00 0.00 67 1016.1
20260902135645 83 236 0.0 0.0 0.00 0.00 0.00 69 1016.0
20260902134639 82 239 0.0 0.0 0.00 0.00 0.00 72 1016.0
20260902133649 81 254 0.0 0.0 0.00 0.00 0.00 78 1015.9
20260902132621 79 253 0.0 0.0 0.00 0.00 0.00 81 1016.1
20260902130359 76 227 0.0 0.0 0.00 0.00 0.00 87 1016.0
20260902125418 76 240 0.0 0.0 0.00 0.00 0.00 87 1016.0
20260902124419 75 240 0.0 0.0 0.00 0.00 0.00 88 1016.0
20260902122250 74 238 0.0 0.0 0.00 0.00 0.00 88 1016.0
20260902120105 72 238 0.0 0.0 0.00 0.00 0.00 88 1015.8
20260902115108 71 238 0.0 0.0 0.00 0.00 0.00 87 1015.7
20260902114038 70 238 0.0 0.0 0.00 0.00 0.00 87 1015.5
20260902113053 70 238 0.0 0.0 0.00 0.00 0.00 86 1015.5
20260902112114 70 238 0.0 0.0 0.00 0.00 0.00 86 1015.4
20260902110031 70 238 0.0 0.0 0.00 0.00 0.00 86 1015.3
20260902105003 70 238 0.0 0.0 0.00 0.00 0.00 86 1015.3
20260902102902 70 238 0.0 0.0 0.00 0.00 0.00 86 1015.2
20260902101829 70 238 0.0 0.0 0.00 0.00 0.00 86 1015.2
20260902100823 70 238 0.0 0.0 0.00 0.00 0.00 85 1015.3
20260902095800 70 238 0.0 0.0 0.00 0.00 0.00 85 1015.3
20260902094805 71 238 0.0 0.0 0.00 0.00 0.00 85 1015.2
20260902092713 71 238 0.0 0.0 0.00 0.00 0.00 85 1015.1
20260902091733 71 238 0.0 0.0 0.00 0.00 0.00 85 1014.9
20260902090728 71 238 0.0 0.0 0.00 0.00 0.00 85 1015.0
20260902085657 71 238 0.0 0.0 0.00 0.00 0.00 85 1015.0
20260902084712 72 238 0.0 0.0 0.00 0.00 0.00 85 1014.9
20260902083727 72 238 0.0 0.0 0.00 0.00 0.00 85 1014.8
20260902082722 72 238 0.0 0.0 0.00 0.00 0.00 85 1014.9
20260902081721 72 238 0.0 0.0 0.00 0.00 0.00 85 1014.7
20260902080723 73 238 0.0 0.0 0.00 0.00 0.00 85 1014.7
20260902075705 73 238 0.0 0.0 0.00 0.00 0.00 85 1014.6
20260902074719 73 238 0.0 0.0 0.00 0.00 0.00 85 1014.5
20260902073726 73 238 0.0 0.0 0.00 0.00 0.00 85 1014.5
20260902072733 73 238 0.0 0.0 0.00 0.00 0.00 85 1014.4
20260902071727 74 238 0.0 0.0 0.00 0.00 0.00 85 1014.4
20260902070733 74 238 0.0 0.0 0.00 0.00 0.00 85 1014.4
20260902063533 74 238 0.0 0.0 0.00 0.00 0.00 85 1014.4
20260902062549 73 238 0.0 0.0 0.00 0.00 0.00 85 1014.4
20260902060453 73 238 0.0 0.0 0.00 0.00 0.00 84 1014.6
20260902055430 73 238 0.0 0.0 0.00 0.00 0.00 83 1014.6
20260902054423 73 238 0.0 0.0 0.00 0.00 0.00 82 1014.6
20260902053425 73 238 0.0 0.0 0.00 0.00 0.00 83 1014.6
20260902052410 73 238 0.0 0.0 0.00 0.00 0.00 83 1014.6
20260902051348 73 238 0.0 0.0 0.00 0.00 0.00 82 1014.5
20260902050329 73 238 0.0 0.0 0.00 0.00 0.00 82 1014.6
20260902045350 74 238 0.0 0.0 0.00 0.00 0.00 83 1014.6
20260902044359 74 238 0.0 0.0 0.00 0.00 0.00 83 1014.6
20260902043418 74 238 0.0 0.0 0.00 0.00 0.00 83 1014.5
20260902042442 74 238 0.0 0.0 0.00 0.00 0.00 82 1014.6
20260902041453 74 238 0.0 0.0 0.00 0.00 0.00 82 1014.7
20260902040425 74 238 0.0 0.0 0.00 0.00 0.00 82 1014.7
20260902035400 75 238 0.0 0.0 0.00 0.00 0.00 82 1014.6
20260902034346 75 238 0.0 0.0 0.00 0.00 0.00 81 1014.6
20260902033400 75 238 0.0 0.0 0.00 0.00 0.00 81 1014.5
20260902032414 75 238 0.0 0.0 0.00 0.00 0.00 81 1014.6
20260902031348 75 238 0.0 0.0 0.00 0.00 0.00 81 1014.6